VU36VU-14 Weather Reports


time (UTC)temp
F
wind
direction
speed
knots
gust
knots
rain 1hr
in
rain 24hr
in
rain mn
in
humidity
%
barometer
mb
20260505041706 91 353 8.7 32.2 0.00 0.54 0.00 44 1010.0
20260505041506 91 353 8.7 32.2 0.00 0.54 0.00 44 1010.0
20260505041306 91 355 9.6 32.2 0.00 0.54 0.00 46 1010.0
20260505041106 91 355 9.6 32.2 0.00 0.54 0.00 46 1010.0
20260505040906 91 355 9.6 32.2 0.00 0.54 0.00 46 1010.0
20260505040706 91 355 9.6 32.2 0.00 0.54 0.00 46 1010.0
20260505040307 91 355 9.6 32.2 0.00 0.54 0.00 46 1010.0
20260505040108 91 355 9.6 32.2 0.00 0.54 0.00 46 1010.0
20260505035906 90 355 9.6 31.3 0.00 0.54 0.00 47 1010.0
20260505035707 90 355 9.6 31.3 0.00 0.54 0.00 47 1010.0
20260505035506 90 355 9.6 31.3 0.00 0.54 0.00 47 1010.0
20260505035306 90 355 9.6 31.3 0.00 0.54 0.00 47 1010.0
20260505035106 90 355 9.6 31.3 0.00 0.54 0.00 47 1010.0
20260505034906 90 355 9.6 31.3 0.00 0.54 0.00 47 1010.0
20260505034707 90 355 9.6 31.3 0.00 0.54 0.00 47 1010.0
20260505034508 90 355 9.6 31.3 0.00 0.54 0.00 47 1010.0
20260505034128 89 353 9.6 29.5 0.00 0.54 0.00 48 1010.0
20260505033928 89 353 9.6 29.5 0.00 0.54 0.00 48 1010.0
20260505033547 89 353 9.6 29.5 0.00 0.54 0.00 48 1010.0
20260505033146 89 353 9.6 29.5 0.00 0.54 0.00 48 1010.0
20260505032946 88 353 9.6 28.7 0.00 0.54 0.00 50 1010.0
20260505032746 88 353 9.6 28.7 0.00 0.54 0.00 50 1010.0
20260505032546 88 353 9.6 28.7 0.00 0.54 0.00 50 1010.0
20260505032346 88 353 9.6 28.7 0.00 0.54 0.00 50 1010.0
20260505032146 88 353 9.6 28.7 0.00 0.54 0.00 50 1010.0
20260505031946 88 353 9.6 28.7 0.00 0.54 0.00 50 1010.0
20260505031746 88 353 9.6 28.7 0.00 0.54 0.00 50 1010.0
20260505031546 88 353 9.6 28.7 0.00 0.54 0.00 50 1010.0
20260505031347 87 354 8.7 27.8 0.00 0.54 0.00 51 1010.0
20260505030946 87 354 8.7 27.8 0.00 0.54 0.00 51 1010.0
20260505030746 87 354 8.7 27.8 0.00 0.54 0.00 51 1010.0
20260505030546 87 354 8.7 27.8 0.00 0.54 0.00 51 1010.0
20260505030346 87 354 8.7 27.8 0.00 0.54 0.00 51 1010.0
20260505030146 87 354 8.7 27.8 0.00 0.54 0.00 51 1010.0
20260505025946 87 358 8.7 26.1 0.00 0.54 0.00 52 1010.0
20260505025746 87 358 8.7 26.1 0.00 0.54 0.00 52 1010.0
20260505025546 87 358 8.7 26.1 0.00 0.54 0.00 52 1010.0
20260505025346 87 358 8.7 26.1 0.00 0.54 0.00 52 1010.0
20260505024946 87 358 8.7 26.1 0.00 0.54 0.00 52 1010.0
20260505024747 87 358 8.7 26.1 0.00 0.54 0.00 52 1010.0
20260505024546 87 358 8.7 26.1 0.00 0.54 0.00 52 1010.0
20260505024346 86 2 7.8 23.5 0.00 0.54 0.00 52 1010.0
20260505024146 86 2 7.8 23.5 0.00 0.54 0.00 52 1010.0
20260505023946 86 2 7.8 23.5 0.00 0.54 0.00 52 1010.0
20260505023746 86 2 7.8 23.5 0.00 0.54 0.00 52 1010.0
20260505023546 86 2 7.8 23.5 0.00 0.54 0.00 52 1010.0
20260505023346 86 2 7.8 23.5 0.00 0.54 0.00 52 1010.0
20260505023147 86 2 7.8 23.5 0.00 0.54 0.00 52 1010.0
20260505022746 85 9 7.0 20.0 0.00 0.54 0.00 53 1009.0
20260505022546 85 9 7.0 20.0 0.00 0.54 0.00 53 1009.0
20260505022346 85 9 7.0 20.0 0.00 0.54 0.00 53 1009.0
20260505022146 85 9 7.0 20.0 0.00 0.54 0.00 53 1009.0
20260505021946 85 9 7.0 20.0 0.00 0.54 0.00 53 1009.0
20260505021746 85 9 7.0 20.0 0.00 0.54 0.00 53 1009.0
20260505021546 85 9 7.0 20.0 0.00 0.54 0.00 53 1009.0
20260505021346 85 15 7.0 18.2 0.00 0.54 0.00 54 1009.0
20260505021147 85 15 7.0 18.2 0.00 0.54 0.00 54 1009.0
20260505020746 85 15 7.0 18.2 0.00 0.54 0.00 54 1009.0
20260505020546 85 15 7.0 18.2 0.00 0.54 0.00 54 1009.0
20260505020346 85 15 7.0 18.2 0.00 0.54 0.00 54 1009.0
20260505020146 85 15 7.0 18.2 0.00 0.54 0.00 54 1009.0
20260505015946 85 21 6.1 18.2 0.00 0.54 0.00 54 1009.0
20260505015746 85 21 6.1 18.2 0.00 0.54 0.00 54 1009.0
20260505015546 85 21 6.1 18.2 0.00 0.54 0.00 54 1009.0
20260505015346 85 21 6.1 18.2 0.00 0.54 0.00 54 1009.0
20260505015146 85 21 6.1 18.2 0.00 0.54 0.00 54 1009.0
20260505014746 85 21 6.1 18.2 0.00 0.54 0.00 54 1009.0
20260505014546 85 21 6.1 18.2 0.00 0.54 0.00 54 1009.0
20260505014346 84 29 6.1 17.4 0.00 0.54 0.00 55 1009.0
20260505014146 84 29 6.1 17.4 0.00 0.54 0.00 55 1009.0
20260505013946 84 29 6.1 17.4 0.00 0.54 0.00 55 1009.0
20260505013746 84 29 6.1 17.4 0.00 0.54 0.00 55 1009.0
20260505013546 84 29 6.1 17.4 0.00 0.54 0.00 55 1009.0
20260505013346 84 29 6.1 17.4 0.00 0.54 0.00 55 1009.0
20260505013146 84 138 4.3 17.4 0.00 0.54 0.00 55 1009.0
20260505012746 84 141 6.1 17.4 0.00 0.54 0.00 56 1009.0
20260505012546 84 141 6.1 17.4 0.00 0.54 0.00 56 1009.0
20260505012346 84 141 6.1 17.4 0.00 0.54 0.00 56 1009.0
20260505012146 84 141 6.1 17.4 0.00 0.54 0.00 56 1009.0
20260505011946 84 141 6.1 17.4 0.00 0.54 0.00 56 1009.0
20260505011746 84 236 8.7 17.4 0.00 0.54 0.00 56 1009.0
20260505011546 84 236 8.7 17.4 0.00 0.54 0.00 56 1009.0
20260505011346 83 232 8.7 17.4 0.00 0.54 0.00 56 1009.0
20260505011146 83 232 8.7 17.4 0.00 0.54 0.00 56 1009.0
20260505010946 83 232 8.7 18.2 0.00 0.54 0.00 56 1009.0
20260505010346 83 232 8.7 18.2 0.00 0.54 0.00 56 1009.0
20260505010147 83 232 8.7 18.2 0.00 0.54 0.00 56 1009.0
20260505005750 83 228 8.7 17.4 0.00 0.54 0.00 57 1009.0
20260505005547 83 228 8.7 17.4 0.00 0.54 0.00 57 1009.0
20260505005147 84 228 8.7 17.4 0.00 0.54 0.00 55 1009.0
20260505004747 84 228 8.7 17.4 0.00 0.54 0.00 55 1009.0
20260505004346 84 222 8.7 17.4 0.00 0.54 0.00 56 1009.0
20260505004146 84 222 8.7 17.4 0.00 0.54 0.00 56 1009.0
20260505003946 84 222 8.7 17.4 0.00 0.54 0.00 56 1009.0
20260505003746 84 222 8.7 17.4 0.00 0.54 0.00 56 1009.0
20260505003546 84 222 8.7 17.4 0.00 0.54 0.00 56 1009.0
20260505003346 84 222 8.7 17.4 0.00 0.54 0.00 56 1009.0
20260505003146 84 222 8.7 17.4 0.00 0.54 0.00 56 1009.0
20260505002946 84 216 7.8 16.5 0.00 0.54 0.00 56 1008.0
20260505002746 84 216 7.8 16.5 0.00 0.54 0.00 56 1008.0
20260505002547 84 216 7.8 16.5 0.00 0.54 0.00 56 1008.0
20260505002147 84 216 7.8 16.5 0.00 0.54 0.00 56 1008.0
20260505001947 84 216 7.8 16.5 0.00 0.54 0.00 56 1008.0
20260505001747 84 216 7.8 16.5 0.00 0.54 0.00 56 1008.0
20260505001547 84 216 7.8 16.5 0.00 0.54 0.00 56 1008.0
20260505001347 84 214 8.7 15.6 0.00 0.54 0.00 56 1008.0
20260505001147 84 214 8.7 15.6 0.00 0.54 0.00 56 1008.0
20260505000947 84 214 8.7 15.6 0.00 0.54 0.00 56 1008.0
20260505000747 84 214 8.7 15.6 0.00 0.54 0.00 56 1008.0
20260505000547 84 214 8.7 15.6 0.00 0.54 0.00 56 1008.0
20260505000350 84 214 8.7 15.6 0.00 0.54 0.00 68 1008.0
20260504235947 84 215 8.7 15.6 0.00 0.54 0.00 68 1008.0
20260504235747 84 215 8.7 15.6 0.00 0.54 0.00 68 1008.0
20260504235547 84 215 8.7 15.6 0.00 0.54 0.00 68 1008.0
20260504235347 84 215 8.7 15.6 0.00 0.54 0.00 68 1008.0
20260504235147 84 215 8.7 15.6 0.00 0.54 0.00 68 1008.0
20260504234947 84 215 8.7 15.6 0.00 0.54 0.00 68 1008.0
20260504234747 84 215 8.7 15.6 0.00 0.54 0.00 68 1008.0
20260504234547 84 215 8.7 15.6 0.00 0.54 0.00 68 1008.0
20260504234347 84 220 8.7 16.5 0.00 0.54 0.00 68 1008.0
20260504233946 84 220 8.7 16.5 0.00 0.54 0.00 68 1008.0
20260504233746 84 220 8.7 16.5 0.00 0.54 0.00 68 1008.0
20260504233547 84 220 8.7 16.5 0.00 0.54 0.00 68 1008.0
20260504233346 84 220 8.7 16.5 0.00 0.54 0.00 68 1008.0
20260504233146 84 220 8.7 16.5 0.00 0.54 0.00 68 1008.0
20260504232946 84 222 8.7 16.5 0.00 0.54 0.00 67 1008.0
20260504232746 84 222 8.7 16.5 0.00 0.54 0.00 67 1008.0
20260504232547 84 222 8.7 16.5 0.00 0.54 0.00 67 1008.0
20260504232346 84 222 8.7 16.5 0.00 0.54 0.00 67 1008.0
20260504232147 84 222 8.7 16.5 0.00 0.54 0.00 67 1008.0
20260504231747 84 222 8.7 16.5 0.00 0.54 0.00 67 1008.0
20260504231546 84 222 8.7 16.5 0.00 0.54 0.00 67 1008.0
20260504231346 85 225 8.7 15.6 0.00 0.54 0.00 66 1008.0
20260504231146 85 225 8.7 15.6 0.00 0.54 0.00 66 1008.0
20260504230947 85 225 8.7 15.6 0.00 0.54 0.00 66 1008.0
20260504230747 85 225 8.7 15.6 0.00 0.54 0.00 66 1008.0
20260504230547 85 225 8.7 15.6 0.00 0.54 0.00 66 1008.0
20260504230346 85 225 8.7 15.6 0.00 0.54 0.00 66 1008.0
20260504230146 85 225 8.7 15.6 0.00 0.54 0.00 66 1008.0
20260504225747 85 225 7.8 14.8 0.00 0.54 0.00 63 1008.0
20260504225547 85 225 7.8 14.8 0.00 0.54 0.00 63 1008.0
20260504225347 85 225 7.8 14.8 0.00 0.54 0.00 63 1008.0
20260504225147 85 225 7.8 14.8 0.00 0.54 0.00 63 1008.0
20260504224947 85 225 7.8 14.8 0.00 0.54 0.00 63 1008.0
20260504224747 85 225 7.8 14.8 0.00 0.54 0.00 63 1008.0
20260504224547 85 225 7.8 14.8 0.00 0.54 0.00 63 1008.0
20260504224347 85 223 6.1 13.0 0.00 0.54 0.00 59 1008.0
20260504224147 85 223 6.1 13.0 0.00 0.54 0.00 59 1008.0
20260504223947 85 223 6.1 13.0 0.00 0.54 0.00 59 1008.0
20260504223546 85 223 6.1 13.0 0.00 0.54 0.00 59 1008.0
20260504223351 85 223 6.1 13.0 0.00 0.54 0.00 59 1008.0
20260504223147 85 223 6.1 13.0 0.00 0.54 0.00 59 1008.0
20260504222947 86 225 5.2 11.3 0.00 0.54 0.00 55 1008.0
20260504222747 86 225 5.2 11.3 0.00 0.54 0.00 55 1008.0
20260504222547 86 225 5.2 11.3 0.00 0.54 0.00 55 1008.0
20260504222347 86 225 5.2 11.3 0.00 0.54 0.00 55 1008.0
20260504222146 86 225 5.2 11.3 0.00 0.54 0.00 55 1008.0
20260504221947 86 225 5.2 11.3 0.00 0.54 0.00 55 1008.0
20260504221747 86 225 5.2 11.3 0.00 0.54 0.00 55 1008.0
20260504221346 86 228 3.5 9.6 0.00 0.54 0.00 52 1008.0
20260504221146 86 228 3.5 9.6 0.00 0.54 0.00 52 1008.0
20260504220947 86 228 3.5 9.6 0.00 0.54 0.00 52 1008.0
20260504220747 86 228 3.5 9.6 0.00 0.54 0.00 52 1008.0
20260504220547 86 228 3.5 9.6 0.00 0.54 0.00 52 1008.0
20260504220347 86 228 3.5 9.6 0.00 0.54 0.00 52 1008.0
20260504220147 86 228 3.5 9.6 0.00 0.54 0.00 52 1008.0
20260504215947 86 249 1.7 9.6 0.00 0.54 0.00 51 1008.0
20260504215748 86 249 1.7 9.6 0.00 0.54 0.00 51 1008.0
20260504215547 86 249 1.7 9.6 0.00 0.54 0.00 51 1008.0
20260504215147 86 249 1.7 9.6 0.00 0.54 0.00 51 1008.0
20260504214947 86 249 1.7 9.6 0.00 0.54 0.00 51 1008.0
20260504214747 86 249 1.7 9.6 0.00 0.54 0.00 51 1008.0
20260504214547 86 249 1.7 9.6 0.00 0.54 0.00 51 1008.0
20260504214347 87 300 1.7 10.4 0.00 0.54 0.00 49 1007.0
20260504214147 87 300 1.7 10.4 0.00 0.54 0.00 49 1007.0
20260504212948 87 337 3.5 11.3 0.00 0.54 0.00 48 1007.0
20260504212547 87 337 3.5 11.3 0.00 0.54 0.00 48 1007.0
20260504212347 87 337 3.5 11.3 0.00 0.54 0.00 48 1007.0
20260504212147 87 337 3.5 11.3 0.00 0.54 0.00 48 1007.0
20260504211947 87 337 3.5 11.3 0.00 0.54 0.00 48 1007.0
20260504211746 87 337 3.5 11.3 0.00 0.54 0.00 48 1007.0
20260504211547 87 337 3.5 11.3 0.00 0.54 0.00 48 1007.0
20260504211348 87 347 5.2 11.3 0.00 0.54 0.00 47 1007.0
20260504211147 87 347 5.2 11.3 0.00 0.54 0.00 47 1007.0
20260504210947 87 347 5.2 11.3 0.00 0.54 0.00 47 1007.0
20260504210547 87 347 5.2 11.3 0.00 0.54 0.00 47 1007.0
20260504210347 87 347 5.2 11.3 0.00 0.54 0.00 47 1007.0
20260504210147 87 347 5.2 11.3 0.00 0.54 0.00 47 1007.0
20260504205947 88 351 5.2 11.3 0.00 0.54 0.00 46 1007.0
20260504205747 88 351 5.2 11.3 0.00 0.54 0.00 46 1007.0
20260504205547 88 351 5.2 11.3 0.00 0.54 0.00 46 1007.0
20260504205347 88 351 5.2 11.3 0.00 0.54 0.00 46 1007.0
20260504205147 88 351 5.2 11.3 0.00 0.54 0.00 46 1007.0
20260504204947 88 351 5.2 11.3 0.00 0.54 0.00 46 1007.0
20260504204747 88 351 5.2 11.3 0.00 0.54 0.00 46 1007.0
20260504204347 88 354 5.2 11.3 0.00 0.54 0.00 46 1007.0
20260504204147 88 354 5.2 11.3 0.00 0.54 0.00 46 1007.0
20260504203947 88 354 5.2 11.3 0.00 0.54 0.00 46 1007.0
20260504203747 88 354 5.2 11.3 0.00 0.54 0.00 46 1007.0
20260504203547 88 354 5.2 11.3 0.00 0.54 0.00 46 1007.0
20260504203347 88 354 5.2 11.3 0.00 0.54 0.00 46 1007.0
20260504203147 88 354 5.2 11.3 0.00 0.54 0.00 46 1007.0
20260504202947 88 357 5.2 10.4 0.00 0.54 0.00 45 1007.0
20260504202748 88 357 5.2 10.4 0.00 0.54 0.00 45 1007.0
20260504202547 88 357 5.2 10.4 0.00 0.54 0.00 45 1007.0
20260504202147 88 357 5.2 10.4 0.00 0.54 0.00 45 1007.0
20260504201947 88 357 5.2 10.4 0.00 0.54 0.00 45 1007.0
20260504201747 88 357 5.2 10.4 0.00 0.54 0.00 45 1007.0
20260504201547 88 357 5.2 10.4 0.00 0.54 0.00 45 1007.0
20260504201347 88 357 5.2 10.4 0.00 0.54 0.00 45 1008.0
20260504201147 88 357 5.2 10.4 0.00 0.54 0.00 45 1008.0
20260504200947 88 357 5.2 10.4 0.00 0.54 0.00 45 1008.0
20260504200749 88 357 5.2 10.4 0.00 0.54 0.00 45 1008.0
20260504200547 88 357 5.2 10.4 0.00 0.54 0.00 45 1008.0
20260504200147 88 357 5.2 10.4 0.00 0.54 0.00 45 1008.0
20260504195947 88 349 4.3 10.4 0.00 0.54 0.00 45 1008.0
20260504195747 88 4 4.3 10.4 0.00 0.54 0.00 45 1008.0
20260504195547 88 4 4.3 10.4 0.00 0.54 0.00 45 1008.0
20260504195347 88 4 4.3 10.4 0.00 0.54 0.00 45 1008.0
20260504195147 88 4 4.3 10.4 0.00 0.54 0.00 45 1008.0
20260504194947 88 4 4.3 10.4 0.00 0.54 0.00 45 1008.0
20260504194747 88 4 4.3 10.4 0.00 0.54 0.00 45 1008.0
20260504194547 88 4 4.3 10.4 0.00 0.54 0.00 45 1008.0
20260504194347 88 360 3.5 9.6 0.00 0.54 0.00 45 1008.0
20260504191347 83 9 1.7 5.2 0.00 0.54 0.00 53 1008.0
20260504191147 83 9 1.7 5.2 0.00 0.05 0.03 53 1009.0
20260504190947 83 9 1.7 5.2 0.00 0.05 0.03 65 1009.0
20260504190747 83 9 1.7 5.2 0.00 0.05 0.03 65 1009.0
20260504190547 83 9 1.7 5.2 0.00 0.05 0.03 65 1009.0
20260504190347 83 9 1.7 5.2 0.00 0.05 0.03 65 1009.0
20260504190147 83 9 1.7 5.2 0.00 0.05 0.03 65 1009.0
20260504185947 83 22 0.9 7.8 0.00 0.67 0.30 65 1009.0
20260504185747 83 22 0.9 7.8 0.00 0.67 0.30 65 1009.0
20260504185547 83 22 0.9 7.8 0.00 0.67 0.30 65 1009.0
20260504183152 82 51 1.7 9.6 0.00 0.67 0.30 66 1009.0
20260504182947 82 67 1.7 12.2 0.00 0.67 0.30 67 1010.0
20260504182747 82 67 1.7 12.2 0.00 0.67 0.30 67 1010.0
20260504182547 82 67 1.7 12.2 0.00 0.67 0.30 67 1010.0
20260504182346 82 67 1.7 12.2 0.00 0.67 0.30 67 1010.0
20260504182147 82 67 1.7 12.2 0.00 0.67 0.30 67 1010.0
20260504181947 82 67 1.7 12.2 0.00 0.67 0.30 67 1010.0
20260504181546 82 67 1.7 12.2 0.00 0.67 0.30 67 1010.0
20260504181347 82 84 2.6 14.8 0.00 0.67 0.30 68 1010.0
20260504181147 82 84 2.6 14.8 0.00 0.67 0.30 68 1010.0
20260504180946 82 84 2.6 14.8 0.00 0.67 0.30 68 1010.0
20260504180747 82 84 2.6 14.8 0.00 0.67 0.30 68 1010.0
20260504180547 82 84 2.6 14.8 0.00 0.67 0.30 68 1010.0
20260504180347 82 84 2.6 14.8 0.00 0.67 0.30 68 1010.0
20260504180148 82 84 2.6 14.8 0.00 0.67 0.30 68 1010.0
20260504175947 82 94 3.5 15.6 0.00 0.67 0.30 67 1010.0
20260504175649 82 94 3.5 15.6 0.00 0.67 0.30 67 1010.0
20260504175448 82 94 3.5 15.6 0.00 0.67 0.30 67 1010.0
20260504175248 82 94 3.5 15.6 0.00 0.67 0.30 67 1010.0
20260504175048 82 94 3.5 15.6 0.00 0.67 0.30 67 1010.0
20260504174849 82 94 3.5 15.6 0.00 0.67 0.30 67 1010.0
20260504174649 82 94 3.5 15.6 0.00 0.67 0.30 67 1010.0
20260504174449 82 100 5.2 16.5 0.00 0.67 0.30 67 1010.0
20260504174249 82 100 5.2 16.5 0.00 0.67 0.30 67 1010.0
20260504173709 82 100 5.2 16.5 0.00 0.67 0.30 67 1010.0
20260504173509 82 100 5.2 16.5 0.00 0.67 0.30 67 1010.0
20260504173309 82 100 5.2 16.5 0.00 0.67 0.30 67 1010.0
20260504173110 82 100 5.2 16.5 0.00 0.67 0.30 67 1010.0
20260504172731 82 103 6.1 17.4 0.00 0.67 0.30 66 1010.0
20260504172530 82 103 6.1 17.4 0.00 0.67 0.30 66 1010.0
20260504172331 82 103 6.1 17.4 0.00 0.67 0.30 66 1010.0
20260504172131 82 103 6.1 17.4 0.00 0.67 0.30 66 1010.0
20260504171731 82 103 6.1 17.4 0.00 0.67 0.30 66 1010.0
20260504171531 82 103 6.1 17.4 0.00 0.67 0.30 66 1010.0
20260504171331 82 103 7.8 20.0 0.00 0.67 0.30 66 1010.0
20260504171131 82 103 7.8 20.0 0.00 0.67 0.30 66 1010.0
20260504170931 82 103 7.8 20.0 0.00 0.67 0.30 66 1010.0
20260504170731 82 103 7.8 20.0 0.00 0.67 0.30 66 1010.0
20260504170531 82 103 7.8 20.0 0.00 0.67 0.30 66 1010.0
20260504170332 82 103 7.8 20.0 0.00 0.67 0.30 66 1010.0
20260504170131 82 103 7.8 20.0 0.00 0.67 0.30 66 1010.0
20260504160331 82 92 10.4 35.6 0.00 0.67 0.30 68 1010.0
20260504160131 82 92 10.4 35.6 0.00 0.67 0.30 68 1010.0
20260504150931 80 142 20.9 53.0 0.00 0.67 0.30 77 1009.0
20260504150731 80 142 20.9 53.0 0.00 0.67 0.30 77 1009.0
20260504150531 80 142 20.9 53.0 0.00 0.67 0.30 77 1009.0
20260504150331 80 142 20.9 53.0 0.00 0.67 0.30 77 1009.0
20260504150132 80 142 20.9 53.0 0.00 0.67 0.30 77 1009.0
20260504141331 76 145 29.5 78.2 0.06 0.67 0.30 88 1009.0
20260504141131 76 145 29.5 78.2 0.06 0.67 0.30 88 1009.0
20260504140931 76 145 29.5 78.2 0.06 0.67 0.30 88 1009.0
20260504140731 76 145 29.5 78.2 0.06 0.67 0.30 88 1009.0
20260504140436 76 145 29.5 78.2 0.06 0.67 0.30 88 1009.0
20260504140237 76 156 26.9 78.2 0.06 0.67 0.30 88 1009.0
20260504130636 87 120 26.9 66.0 0.00 0.67 0.30 51 1007.0
20260504130437 87 120 26.9 66.0 0.00 0.67 0.00 51 1007.0
20260504120237 90 249 38.2 80.8 0.00 0.61 0.00 47 1006.0
20260504110714 100 110 7.8 27.8 0.00 0.61 0.00 29 1004.0
20260504110200 100 110 7.8 27.8 0.00 0.61 0.00 29 1004.0
20260504100559 104 16 1.7 32.2 0.00 0.61 0.00 28 1003.0
20260504100400 104 16 1.7 32.2 0.00 0.61 0.00 28 1003.0
20260504100200 104 16 1.7 32.2 0.00 0.61 0.00 28 1003.0
20260504081859 103 183 5.2 32.2 0.00 0.61 0.00 30 1005.0
20260504081459 103 189 5.2 32.2 0.00 0.61 0.00 31 1005.0
20260504081259 103 191 4.3 32.2 0.00 0.61 0.00 31 1005.0
20260504081059 103 191 4.3 32.2 0.00 0.61 0.00 31 1005.0
20260504080859 103 191 4.3 32.2 0.00 0.61 0.00 31 1005.0
20260504080659 103 191 4.3 32.2 0.00 0.61 0.00 31 1005.0
20260504080459 103 191 4.3 32.2 0.00 0.61 0.00 31 1005.0
20260504080259 103 191 4.3 32.2 0.00 0.61 0.00 31 1005.0
20260504070259 102 253 3.5 33.0 0.00 0.14 0.54 32 1006.0
20260504060134 100 294 6.1 33.9 0.00 0.14 0.54 36 1008.0
20260504050647 96 288 8.7 33.9 0.00 0.14 0.54 42 1008.0
20260504050447 96 288 8.7 33.9 0.00 0.14 0.54 42 1008.0
20260504050247 96 288 8.7 33.9 0.00 0.14 0.54 42 1008.0
20260504045847 96 288 8.7 33.9 0.00 0.14 0.54 43 1008.0
20260504045647 96 288 8.7 33.9 0.00 0.14 0.54 43 1008.0
20260504045447 96 288 8.7 33.9 0.00 0.14 0.54 43 1008.0
20260504045247 96 288 8.7 33.9 0.00 0.14 0.54 43 1008.0
20260504045047 96 288 8.7 33.9 0.00 0.14 0.54 43 1008.0
20260504044647 96 288 8.7 33.9 0.00 0.14 0.54 43 1008.0
20260504044447 95 289 8.7 33.9 0.00 0.14 0.54 45 1009.0
20260504044247 95 289 8.7 33.9 0.00 0.14 0.54 45 1009.0
20260504044047 95 289 8.7 33.9 0.00 0.14 0.54 45 1009.0
20260504043847 95 289 8.7 33.9 0.00 0.14 0.54 45 1009.0
20260504043647 95 289 8.7 33.9 0.00 0.14 0.54 45 1009.0
20260504043447 95 289 8.7 33.9 0.00 0.14 0.54 45 1009.0
20260504043247 95 289 8.7 33.9 0.00 0.14 0.54 45 1009.0
20260504043047 95 289 8.7 33.9 0.00 0.14 0.54 45 1009.0
20260504042848 93 291 8.7 33.0 0.00 0.14 0.54 47 1009.0
20260504042447 93 291 8.7 33.0 0.00 0.14 0.54 47 1009.0